Location: Rio Negrinho
(26.2394°S, 49.4999°W)
Time: 23:07:28
(UTC+00:00)

SEDSat Delta rocket - Visible Passes

Search period start: 01 October 2020 00:00
Search period end: 11 October 2020 00:00
Orbit: 533 x 1001 km, 31.4° (Epoch: 01 October)

Date Brightness Start Highest point End Pass type
(mag) Time Alt. Az. Time Alt. Az. Time Alt. Az.
01 Oct 3.6 23:17:28 10° WNW 23:22:04 62° WNW 23:22:04 62° WNW visible
02 Oct 3.3 22:36:24 10° WNW 22:42:08 78° NNE 22:44:06 38° E visible
03 Oct 6.1 00:23:32 10° W 00:24:15 14° W 00:24:15 14° W visible
03 Oct 3.6 21:55:21 10° WNW 22:01:18 68° NNE 22:06:04 12° ESE visible
03 Oct 4.6 23:42:23 10° W 23:46:12 39° WSW 23:46:12 39° WSW visible
04 Oct 3.8 23:01:13 10° W 23:06:53 60° SSW 23:08:05 47° SE visible
05 Oct 3.8 22:20:01 10° W 22:26:02 66° SSW 22:29:54 19° ESE visible
06 Oct 5.4 00:07:29 10° WSW 00:10:01 25° WSW 00:10:01 25° WSW visible
06 Oct 3.9 21:38:49 10° W 21:45:06 73° SSW 21:50:37 10° ESE visible
06 Oct 4.1 23:26:19 10° WSW 23:31:45 47° S 23:31:45 47° S visible
07 Oct 4.2 22:45:06 10° W 22:50:57 50° S 22:53:26 29° SE visible
08 Oct 6.1 00:32:20 10° WSW 00:33:33 16° WSW 00:33:33 16° WSW visible
08 Oct 4.3 22:03:52 10° W 22:10:00 53° S 22:15:04 12° ESE visible
08 Oct 4.7 23:51:13 10° WSW 23:55:11 40° SW 23:55:11 40° SW visible
09 Oct 3.9 23:10:04 10° WSW 23:15:59 54° S 23:16:48 50° SE visible
10 Oct 4.2 22:28:53 10° WSW 22:35:02 53° S 22:38:23 23° ESE visible
